Simultaneous Nadir Overpasses (SNOs) Predictions

Prediction of SNOs between GOES-15 and LANDSAT-8 Satellite Orbit:

Table of predicted SNOs for the next 14.0 days since TLE Epoch: 11/25/2023
Index Date Time (GOES-15) GOES-15 Lat,Lon LANDSAT-8 Lat,Lon Distance(km) Time Diff (sec)
1 11/25/2023 06:15:05 -0.20, 61.43 0.31, 59.07 269.05 80
2 11/27/2023 06:05:34 -0.19, 61.38 -0.36, 62.01 73.04 80
3 11/29/2023 05:53:22 -0.19, 61.33 -0.99, 64.97 414.75 80
4 11/29/2023 18:14:45 0.18, 61.39 -0.18, 59.80 181.09 80
5 12/01/2023 17:59:53 0.17, 61.34 0.49, 62.75 160.24 80
6 12/02/2023 06:21:08 -0.16, 61.28 0.62, 57.60 418.16 80
7 12/04/2023 06:08:55 -0.16, 61.23 -0.01, 60.56 76.36 80
8 12/06/2023 05:59:22 -0.15, 61.19 -0.67, 63.52 265.40 80
9 12/06/2023 18:20:45 0.14, 61.23 -0.47, 58.34 328.43 80
10 12/08/2023 18:05:51 0.14, 61.19 0.15, 61.31 12.77 80
